Simultaneous Nadir Overpasses (SNOs) Predictions

Prediction of SNOs between AURA and NPP Satellite Orbit:

Table of predicted SNOs for the next 14.0 days since TLE Epoch: 8/31/2024
Index Date (AURA) Time (AURA) Lat,Lon (AURA) SZA (AURA ) Date (NPP) Time (NPP) Lat,Lon (NPP) SZA (NPP ) Distance(km) Time Diff (sec)
1 09/01/2024 01:53:56 -80.77,-117.21 98.25 09/01/2024 01:53:21 -80.77,-117.17 98.23 0.85 35
2 09/01/2024 02:43:16 80.84, 51.36 81.63 09/01/2024 02:44:02 80.84, 51.34 81.60 0.55 46
3 09/03/2024 14:47:56 -80.79, 49.58 97.41 09/03/2024 14:47:13 -80.80, 49.76 97.41 3.26 43
4 09/03/2024 15:37:17 80.83,-142.23 82.52 09/03/2024 15:37:55 80.84,-142.12 82.48 2.12 38
5 09/06/2024 03:41:54 -80.79,-143.91 96.51 09/06/2024 03:41:06 -80.79,-143.79 96.50 2.13 48
6 09/06/2024 04:31:15 80.83, 24.24 83.43 09/06/2024 04:31:48 80.83, 24.30 83.39 1.19 33
7 09/08/2024 16:35:50 -80.76, 22.32 95.56 09/08/2024 16:35:00 -80.76, 22.17 95.51 2.61 50
8 09/08/2024 17:25:09 80.85,-168.88 84.28 09/08/2024 17:25:39 80.86,-168.71 84.23 3.18 30
9 09/11/2024 05:29:41 -80.80,-170.72 94.72 09/11/2024 05:28:50 -80.80,-170.60 94.70 2.12 51
10 09/11/2024 06:19:00 80.86, -2.29 85.18 09/11/2024 06:19:30 80.86, -2.20 85.15 1.71 30
11 09/13/2024 18:23:29 -80.81, -4.03 93.82 09/13/2024 18:22:40 -80.81, -3.85 93.82 3.27 49



Historial Predications of SNOs between AURA and NPP
